| time (UTC) | temp C | wind direction | speed KPH | gust KPH | rain 1hr cm | rain 24hr cm | rain mn cm | humidity % | barometer mb |
| 20260504050014 | 8 | 262 | 0.0 | 0.0 | 0.00 | 0.00 | 0.00 | 45 | 1013.5 |
| 20260504044513 | 8 | 262 | 0.0 | 3.2 | 0.00 | 0.00 | 0.00 | 46 | 1013.6 |
| 20260504043012 | 9 | 244 | 0.0 | 1.6 | 0.00 | 0.00 | 0.00 | 45 | 1013.5 |
| 20260504041504 | 9 | 238 | 0.0 | 0.0 | 0.00 | 0.00 | 0.00 | 44 | 1013.6 |
| 20260504040100 | 10 | 238 | 0.0 | 0.0 | 0.00 | 0.00 | 0.00 | 43 | 1013.7 |
| 20260504034556 | 8 | 238 | 0.0 | 0.0 | 0.00 | 0.00 | 0.00 | 48 | 1013.8 |
| 20260504033102 | 10 | 238 | 0.0 | 0.0 | 0.00 | 0.00 | 0.00 | 45 | 1014.0 |
| 20260504031553 | 10 | 238 | 0.0 | 0.0 | 0.00 | 0.00 | 0.00 | 44 | 1014.2 |
| 20260504030100 | 10 | 271 | 0.0 | 0.0 | 0.00 | 0.00 | 0.00 | 44 | 1014.0 |
| 20260504024540 | 10 | 206 | 0.0 | 0.0 | 0.00 | 0.00 | 0.00 | 46 | 1013.8 |
| 20260504023035 | 10 | 206 | 0.0 | 0.0 | 0.00 | 0.00 | 0.00 | 45 | 1013.9 |
| 20260504021541 | 10 | 206 | 0.0 | 1.6 | 0.00 | 0.00 | 0.00 | 47 | 1014.0 |
| 20260504020036 | 10 | 206 | 0.0 | 0.0 | 0.00 | 0.00 | 0.00 | 50 | 1014.0 |
| 20260504014522 | 10 | 206 | 0.0 | 0.0 | 0.00 | 0.00 | 0.00 | 48 | 1014.1 |
| 20260504013019 | 11 | 206 | 0.0 | 0.0 | 0.00 | 0.00 | 0.00 | 48 | 1014.2 |
| 20260504011512 | 11 | 175 | 0.0 | 0.0 | 0.00 | 0.00 | 0.00 | 48 | 1014.2 |
| 20260504010008 | 12 | 175 | 0.0 | 0.0 | 0.00 | 0.00 | 0.00 | 46 | 1014.1 |
| 20260504004513 | 13 | 175 | 0.0 | 0.0 | 0.00 | 0.00 | 0.00 | 44 | 1014.0 |
| 20260504003109 | 14 | 175 | 0.0 | 0.0 | 0.00 | 0.00 | 0.00 | 41 | 1013.9 |
| 20260504003001 | 14 | 175 | 0.0 | 0.0 | 0.00 | 0.00 | 0.00 | 42 | 1013.9 |
| 20260504001601 | 16 | 175 | 0.0 | 0.0 | 0.00 | 0.00 | 0.00 | 37 | 1013.7 |
| 20260504000059 | 17 | 175 | 0.0 | 0.0 | 0.00 | 0.00 | 0.00 | 32 | 1013.5 |
| 20260503234551 | 18 | 175 | 0.0 | 0.0 | 0.00 | 0.00 | 0.00 | 30 | 1013.3 |
| 20260503233050 | 19 | 203 | 0.0 | 3.2 | 0.00 | 0.00 | 0.00 | 29 | 1013.2 |
| 20260503231542 | 19 | 259 | 0.0 | 4.8 | 0.00 | 0.00 | 0.00 | 28 | 1013.1 |
| 20260503230053 | 20 | 229 | 0.0 | 3.2 | 0.00 | 0.00 | 0.00 | 27 | 1012.7 |
| 20260503224533 | 21 | 217 | 0.0 | 1.6 | 0.00 | 0.00 | 0.00 | 26 | 1012.7 |
| 20260503223029 | 22 | 221 | 0.0 | 9.7 | 0.00 | 0.00 | 0.00 | 24 | 1012.6 |
| 20260503221526 | 22 | 208 | 0.0 | 4.8 | 0.00 | 0.00 | 0.00 | 23 | 1012.5 |
| 20260503220029 | 23 | 51 | 3.2 | 9.7 | 0.00 | 0.00 | 0.00 | 21 | 1012.3 |
| 20260503214528 | 24 | 78 | 4.8 | 16.1 | 0.00 | 0.00 | 0.00 | 19 | 1012.1 |
| 20260503213023 | 25 | 141 | 1.6 | 12.9 | 0.00 | 0.00 | 0.00 | 18 | 1011.8 |
| 20260503211507 | 25 | 207 | 1.6 | 17.7 | 0.00 | 0.00 | 0.00 | 15 | 1011.8 |
| 20260503210003 | 26 | 180 | 0.0 | 17.7 | 0.00 | 0.00 | 0.00 | 15 | 1011.6 |
| 20260503204559 | 26 | 199 | 4.8 | 17.7 | 0.00 | 0.00 | 0.00 | 14 | 1011.5 |
| 20260503203054 | 26 | 212 | 6.4 | 22.5 | 0.00 | 0.00 | 0.00 | 14 | 1011.4 |
| 20260503201552 | 27 | 188 | 8.0 | 22.5 | 0.00 | 0.00 | 0.00 | 14 | 1011.5 |
| 20260503200047 | 27 | 203 | 6.4 | 16.1 | 0.00 | 0.00 | 0.00 | 13 | 1011.4 |
| 20260503194548 | 27 | 184 | 11.3 | 20.9 | 0.00 | 0.00 | 0.00 | 12 | 1011.4 |
| 20260503193037 | 27 | 202 | 12.9 | 25.7 | 0.00 | 0.00 | 0.00 | 11 | 1011.4 |
| 20260503191532 | 28 | 180 | 8.0 | 20.9 | 0.00 | 0.00 | 0.00 | 10 | 1011.3 |
| 20260503190038 | 28 | 147 | 9.7 | 20.9 | 0.00 | 0.00 | 0.00 | 10 | 1011.3 |
| 20260503184524 | 28 | 221 | 3.2 | 19.3 | 0.00 | 0.00 | 0.00 | 9 | 1011.3 |
| 20260503183019 | 28 | 136 | 4.8 | 16.1 | 0.00 | 0.00 | 0.00 | 8 | 1011.5 |
| 20260503181531 | 28 | 131 | 6.4 | 16.1 | 0.00 | 0.00 | 0.00 | 8 | 1011.4 |
| 20260503180016 | 28 | 151 | 8.0 | 14.5 | 0.00 | 0.00 | 0.00 | 8 | 1011.5 |
| 20260503174505 | 28 | 119 | 6.4 | 17.7 | 0.00 | 0.00 | 0.00 | 8 | 1011.9 |
| 20260503173001 | 28 | 138 | 6.4 | 17.7 | 0.00 | 0.00 | 0.00 | 8 | 1012.1 |
| 20260503171556 | 27 | 148 | 9.7 | 17.7 | 0.00 | 0.00 | 0.00 | 8 | 1012.3 |
| 20260503170104 | 27 | 141 | 8.0 | 19.3 | 0.00 | 0.00 | 0.00 | 8 | 1012.4 |
| 20260503081514 | 7 | 271 | 0.0 | 3.2 | 0.00 | 0.00 | 0.00 | 31 | 1013.0 |
| 20260503071509 | 7 | 271 | 0.0 | 3.2 | 0.00 | 0.00 | 0.00 | 36 | 1013.4 |